QPF
0.00 0.00 0.00 0.00 0.00 0.00 0.00 0.00 0.00 0.00 0.00 0.00 0.00 0.00 0.00 0.00 0.00 0.00 0.00 0.00 0.00 0.00 0.00 0.00 0.00 0.00 0.00 0.00 0.00 0.00 0.00 0.00 0.00 0.00 0.00 0.00 0.00 0.00 0.00 0.00 0.00 0.00 0.00 0.00
0.00 0.00 0.00 0.00 0.00 0.00 0.00 0.00 0.00 0.00 0.00 0.00 0.00 0.00 0.00 0.00 0.00 0.00 0.00 0.00 0.00 0.00 0.00 0.00 0.00 0.00 0.00 0.00 0.00 0.00 0.00 0.00 0.00 0.00 0.00 0.00 0.00 0.00 0.00 0.00 0.00 0.00 0.00 0.00
0.00 0.00 0.00 0.00 0.00 0.00 0.00 0.00 0.00 0.00 0.00 0.00 0.00 0.00 0.00 0.00 0.00 0.00 0.00 0.00 0.00 0.00 0.00 0.00 0.00 0.00 0.00 0.00 0.00 0.00 0.00 0.00 0.00 0.00 0.00 0.00 0.00 0.00 0.00 0.00 0.00 0.00 0.00 0.00
0.00 0.00 0.00 0.00 0.00 0.00 0.00 0.00 0.00 0.00 0.00 0.00 0.00 0.00 0.00 0.00 0.00 0.00 0.00 0.00 0.00 0.00 0.00 0.00 0.00 0.00 0.00 0.00 0.00 0.00 0.00 0.00 0.00 0.00 0.00 0.00 0.00 0.00 0.00 0.00 0.00 0.00 0.00 0.00
0.00 0.00 0.00 0.00 0.00 0.00 0.00 0.00 0.00 0.00 0.00 0.00 0.00 0.00 0.00 0.00 0.00 0.00 0.00 0.00 0.00 0.00 0.00 0.00 0.00 0.00 0.00 0.00 0.00 0.00 0.00 0.00 0.00 0.00 0.00 0.00 0.00 0.00 0.00 0.00 0.00 0.00 0.00 0.00
0.00 0.00 0.00 0.00 0.00 0.00 0.00 0.00 0.00 0.00 0.00 0.00 0.00 0.00 0.00 0.00 0.00 0.00 0.00 0.00 0.00 0.00 0.00 0.00 0.00 0.00 0.00 0.00 0.00 0.00 0.00 0.00 0.00 0.00 0.00 0.00 0.00 0.00 0.00 0.00 0.00 0.00 0.00 0.00
0.00 0.00 0.00 0.00 0.00 0.00 0.00 0.00 0.00 0.00 0.00 0.00 0.00 0.00 0.00 0.00 0.00 0.00 0.00 0.00 0.00 0.00 0.00 0.00 0.00 0.00 0.00 0.00 0.00 0.00 0.00 0.00 0.00 0.00 0.00 0.00 0.00 0.00 0.01 0.01 0.00 0.00 0.00 0.00
0.00 0.00 0.00 0.00 0.00 0.00 0.00 0.00 0.00 0.00 0.00 0.00 0.00 0.00 0.00 0.00 0.00 0.00 0.00 0.00 0.00 0.00 0.00 0.00 0.00 0.00 0.00 0.00 0.00 0.00 0.00 0.00 0.00 0.00 0.00 0.00 0.00 0.01 0.01 0.00 0.00 0.00 0.00 0.00
0.00 0.00 0.00 0.00 0.00 0.00 0.00 0.00 0.00 0.00 0.00 0.00 0.00 0.00 0.00 0.00 0.00 0.00 0.00 0.00 0.00 0.00 0.00 0.00 0.00 0.00 0.00 0.00 0.00 0.00 0.00 0.00 0.00 0.00 0.00 0.00 0.00 0.01 0.01 0.00 0.00 0.00 0.00 0.00
0.00 0.00 0.00 0.00 0.00 0.00 0.00 0.00 0.00 0.00 0.00 0.00 0.00 0.00 0.00 0.00 0.00 0.00 0.00 0.00 0.00 0.00 0.00 0.00 0.00 0.00 0.00 0.00 0.00 0.00 0.00 0.00 0.00 0.00 0.00 0.00 0.00 0.01 0.00 0.00 0.00 0.00 0.00 0.01
0.00 0.00 0.00 0.00 0.00 0.00 0.00 0.00 0.00 0.00 0.00 0.00 0.00 0.00 0.00 0.00 0.00 0.00 0.00 0.00 0.00 0.00 0.00 0.00 0.00 0.00 0.00 0.00 0.00 0.00 0.00 0.00 0.00 0.00 0.00 0.00 0.00 0.00 0.00 0.00 0.00 0.00 0.00 0.00
0.00 0.00 0.00 0.00 0.00 0.00 0.00 0.00 0.00 0.00 0.00 0.00 0.00 0.00 0.00 0.00 0.00 0.00 0.00 0.00 0.00 0.00 0.00 0.00 0.00 0.00 0.00 0.00 0.00 0.00 0.00 0.00 0.00 0.00 0.00 0.00 0.00 0.00 0.00 0.00 0.00 0.00 0.00 0.00
0.00 0.00 0.00 0.00 0.00 0.00 0.00 0.00 0.00 0.00 0.00 0.00 0.00 0.00 0.00 0.00 0.00 0.00 0.00 0.00 0.00 0.00 0.00 0.00 0.00 0.00 0.00 0.00 0.00 0.00 0.00 0.00 0.00 0.00 0.00 0.00 0.00 0.00 0.00 0.00 0.00 0.00 0.00 0.00
0.00 0.00 0.00 0.00 0.00 0.00 0.00 0.00 0.00 0.00 0.00 0.00 0.00 0.00 0.00 0.00 0.00 0.00 0.00 0.00 0.00 0.00 0.00 0.00 0.00 0.00 0.00 0.00 0.00 0.00 0.00 0.00 0.00 0.00 0.00 0.00 0.00 0.00 0.00 0.00 0.00 0.00 0.00 0.00
0.00 0.00 0.00 0.00 0.00 0.00 0.00 0.00 0.00 0.00 0.00 0.00 0.00 0.00 0.00 0.00 0.00 0.00 0.00 0.00 0.00 0.00 0.00 0.00 0.00 0.00 0.00 0.00 0.00 0.00 0.00 0.00 0.00 0.00 0.00 0.00 0.00 0.00 0.00 0.00 0.00 0.00 0.00 0.00
0.00 0.00 0.00 0.00 0.00 0.00 0.00 0.00 0.00 0.00 0.00 0.00 0.00 0.00 0.00 0.00 0.00 0.00 0.00 0.00 0.00 0.00 0.00 0.00 0.00 0.00 0.00 0.00 0.00 0.00 0.00 0.00 0.00 0.00 0.00 0.00 0.00 0.00 0.00 0.00 0.00 0.00 0.00 0.00
0.00 0.00 0.00 0.00 0.00 0.00 0.00 0.00 0.00 0.00 0.00 0.00 0.00 0.00 0.00 0.00 0.00 0.00 0.00 0.00 0.00 0.00 0.00 0.00 0.00 0.00 0.00 0.00 0.00 0.00 0.00 0.00 0.00 0.00 0.00 0.00 0.00 0.00 0.00 0.00 0.00 0.00 0.00 0.00
0.00 0.00 0.00 0.00 0.00 0.00 0.00 0.00 0.00 0.00 0.00 0.00 0.00 0.00 0.00 0.00 0.00 0.00 0.00 0.00 0.00 0.00 0.00 0.00 0.00 0.00 0.00 0.00 0.00 0.00 0.00 0.00 0.00 0.00 0.00 0.00 0.00 0.00 0.00 0.00 0.00 0.00 0.00 0.00
0.00 0.00 0.00 0.00 0.00 0.00 0.00 0.00 0.00 0.00 0.00 0.00 0.00 0.00 0.00 0.00 0.00 0.00 0.00 0.00 0.00 0.00 0.00 0.00 0.00 0.00 0.00 0.00 0.00 0.00 0.00 0.00 0.00 0.00 0.00 0.00 0.00 0.00 0.00 0.00 0.00 0.00 0.00 0.00
0.00 0.00 0.00 0.00 0.00 0.00 0.00 0.00 0.00 0.00 0.00 0.00 0.00 0.00 0.00 0.00 0.00 0.00 0.00 0.00 0.00 0.00 0.00 0.00 0.00 0.00 0.00 0.00 0.00 0.00 0.00 0.00 0.00 0.00 0.00 0.00 0.00 0.00 0.00 0.00 0.00 0.00 0.00 0.00
0.00 0.00 0.00 0.00 0.00 0.00 0.00 0.00 0.00 0.00 0.00 0.00 0.00 0.00 0.00 0.00 0.00 0.00 0.00 0.00 0.00 0.00 0.00 0.00 0.00 0.00 0.00 0.00 0.00 0.00 0.00 0.00 0.00 0.00 0.00 0.00 0.00 0.00 0.00 0.00 0.00 0.00 0.00 0.00
0.00 0.00 0.00 0.00 0.00 0.00 0.00 0.00 0.00 0.00 0.00 0.00 0.00 0.00 0.00 0.00 0.00 0.00 0.00 0.00 0.00 0.00 0.00 0.00 0.00 0.00 0.00 0.00 0.00 0.00 0.00 0.00 0.00 0.00 0.00 0.00 0.00 0.00 0.00 0.00 0.00 0.00 0.00 0.00
0.00 0.00 0.00 0.00 0.00 0.00 0.00 0.00 0.00 0.00 0.00 0.00 0.00 0.00 0.00 0.00 0.00 0.00 0.00 0.00 0.00 0.00 0.00 0.00 0.00 0.00 0.00 0.00 0.00 0.00 0.00 0.00 0.00 0.00 0.00 0.00 0.00 0.00 0.00 0.00 0.00 0.00 0.00 0.00
0.00 0.00 0.00 0.00 0.00 0.00 0.00 0.00 0.00 0.00 0.00 0.00 0.00 0.00 0.00 0.00 0.00 0.00 0.00 0.00 0.00 0.00 0.00 0.00 0.00 0.00 0.00 0.00 0.00 0.00 0.00 0.00 0.00 0.00 0.00 0.00 0.00 0.00 0.00 0.00 0.00 0.00 0.00 0.00
0.00 0.00 0.00 0.00 0.00 0.00 0.00 0.00 0.00 0.00 0.00 0.00 0.00 0.00 0.00 0.00 0.00 0.00 0.00 0.00 0.00 0.00 0.00 0.00 0.00 0.00 0.00 0.00 0.00 0.00 0.00 0.00 0.00 0.00 0.00 0.00 0.00 0.00 0.00 0.00 0.00 0.00 0.00 0.00
0.00 0.00 0.00 0.00 0.00 0.00 0.00 0.00 0.00 0.00 0.00 0.00 0.00 0.00 0.00 0.00 0.00 0.00 0.00 0.00 0.00 0.00 0.00 0.00 0.00 0.00 0.00 0.00 0.00 0.00 0.00 0.00 0.00 0.00 0.00 0.00 0.00 0.00 0.00 0.00 0.00 0.00 0.00 0.00
MSLP
1020.17 1021.48 1023.31 1023.62 1023.41 1023.06 1023.09 1023.45 1024.12 1025.04 1026.30 1027.42 1028.59 1029.62 1030.25 1030.52 1030.82 1031.08 1031.02 1030.86 1030.13 1029.31 1028.14 1027.33 1026.32 1025.61 1024.85 1024.33 1023.71 1023.11 1022.29 1021.62 1020.84 1020.01 1019.02 1018.17 1017.42 1016.64 1015.93 1015.30 1014.66 1014.00 1013.45 1013.07
1021.54 1023.04 1023.71 1023.58 1023.54 1023.12 1023.31 1023.88 1024.74 1025.79 1026.68 1027.67 1029.34 1030.12 1030.48 1030.73 1031.26 1031.55 1031.49 1031.07 1030.46 1029.41 1028.14 1027.03 1026.23 1025.55 1025.02 1024.30 1023.63 1022.93 1022.31 1021.47 1020.70 1019.89 1019.01 1018.28 1017.28 1016.39 1015.56 1014.77 1014.10 1013.58 1012.92 1012.46
1022.99 1024.44 1023.85 1023.72 1023.96 1023.77 1023.85 1024.21 1025.18 1026.10 1027.19 1028.27 1029.42 1030.54 1030.87 1031.24 1031.54 1031.58 1031.53 1031.30 1030.37 1029.37 1028.28 1027.12 1026.28 1025.58 1024.93 1024.28 1023.56 1022.90 1022.14 1021.19 1020.38 1019.51 1018.63 1017.71 1016.81 1015.84 1014.93 1014.18 1013.52 1012.94 1012.44 1011.85
1024.29 1024.54 1024.38 1024.30 1024.49 1024.77 1024.51 1024.48 1025.12 1025.94 1027.12 1028.57 1029.47 1030.78 1031.63 1032.08 1032.02 1031.87 1031.65 1030.92 1030.29 1029.31 1028.33 1027.52 1026.50 1025.63 1024.87 1024.31 1023.84 1023.26 1022.36 1021.23 1020.21 1019.34 1018.42 1017.48 1016.46 1015.29 1014.51 1013.60 1012.81 1012.15 1011.55 1011.03
1025.22 1025.06 1024.88 1025.00 1025.21 1025.26 1024.99 1024.90 1025.13 1025.89 1027.19 1028.46 1029.86 1031.12 1032.60 1032.64 1032.69 1032.26 1031.93 1031.26 1030.32 1029.59 1028.60 1027.53 1026.62 1025.92 1025.19 1024.47 1023.94 1023.32 1022.46 1021.30 1020.38 1019.41 1018.53 1017.41 1016.21 1015.21 1014.27 1013.34 1012.39 1011.68 1010.99 1010.39
1025.38 1025.25 1025.65 1025.91 1025.48 1025.53 1025.25 1025.34 1025.71 1026.53 1027.68 1028.94 1029.86 1031.26 1033.30 1033.32 1033.57 1032.86 1032.02 1031.48 1030.65 1029.50 1028.58 1027.68 1026.88 1026.05 1025.35 1024.75 1024.12 1023.35 1022.31 1021.16 1020.26 1019.20 1018.20 1017.23 1016.19 1014.88 1013.77 1012.79 1011.98 1011.22 1010.60 1009.83
1026.04 1026.25 1026.26 1026.38 1026.28 1025.92 1026.26 1026.50 1027.34 1028.24 1028.94 1029.65 1030.50 1031.65 1033.22 1033.72 1033.66 1033.36 1032.52 1031.56 1030.72 1029.75 1028.78 1027.57 1026.45 1025.77 1025.10 1024.59 1023.87 1023.01 1022.12 1021.09 1020.15 1019.12 1018.10 1017.09 1016.04 1014.87 1013.70 1012.83 1011.85 1010.90 1010.05 1009.40
1027.23 1026.90 1027.34 1027.44 1028.04 1028.29 1028.45 1028.92 1030.00 1030.74 1031.34 1031.21 1031.21 1032.22 1033.25 1033.66 1033.68 1033.30 1032.55 1031.82 1030.82 1029.91 1029.14 1028.17 1027.14 1026.42 1025.64 1024.89 1024.16 1023.19 1022.17 1021.05 1020.01 1019.01 1018.06 1017.12 1016.09 1014.88 1013.90 1013.02 1011.96 1010.88 1009.85 1009.06
1027.84 1027.99 1027.88 1028.18 1028.50 1028.90 1029.31 1030.39 1031.43 1032.20 1032.92 1033.57 1032.65 1033.38 1033.58 1033.49 1033.38 1033.33 1032.56 1031.89 1030.97 1030.05 1029.14 1028.22 1027.33 1026.68 1025.96 1025.22 1024.36 1023.25 1022.19 1021.20 1020.20 1019.38 1018.38 1017.39 1016.29 1015.06 1014.20 1013.10 1012.10 1010.96 1009.87 1008.79
1028.23 1028.56 1028.64 1028.68 1028.88 1029.52 1030.22 1031.60 1032.59 1033.66 1035.05 1035.51 1034.05 1034.52 1034.60 1034.40 1033.93 1033.38 1032.65 1031.85 1031.20 1030.30 1029.29 1028.40 1027.55 1026.83 1026.30 1025.60 1024.61 1023.48 1022.57 1021.69 1020.49 1019.48 1018.60 1017.57 1016.50 1015.20 1014.37 1013.28 1012.21 1011.10 1010.06 1008.87
1028.60 1028.94 1029.59 1029.55 1030.76 1031.31 1031.67 1032.65 1034.06 1035.43 1036.84 1037.58 1037.07 1035.55 1034.97 1035.22 1034.77 1033.99 1033.37 1032.53 1031.43 1030.49 1029.58 1028.62 1027.82 1027.12 1026.63 1025.88 1024.89 1023.80 1022.80 1021.68 1020.45 1019.54 1018.65 1017.70 1016.76 1015.51 1014.41 1013.54 1012.50 1011.38 1010.29 1009.17
1029.23 1029.82 1030.71 1031.25 1031.44 1031.75 1032.49 1033.61 1034.98 1036.62 1038.35 1039.04 1038.94 1036.02 1034.69 1035.14 1034.73 1034.17 1033.67 1033.03 1032.18 1031.10 1029.95 1028.98 1028.28 1027.50 1026.81 1026.00 1025.06 1023.95 1022.94 1021.80 1020.73 1019.81 1018.89 1018.01 1017.04 1015.95 1014.80 1013.90 1012.95 1011.84 1010.64 1009.43
1029.38 1030.22 1031.07 1031.53 1031.96 1031.96 1032.78 1033.87 1035.24 1036.82 1038.26 1039.16 1039.48 1036.26 1034.97 1034.82 1034.75 1034.35 1033.80 1032.92 1032.01 1031.14 1030.17 1029.24 1028.48 1027.74 1027.02 1026.15 1025.32 1024.30 1023.16 1022.15 1021.02 1019.98 1019.17 1018.34 1017.41 1016.51 1015.53 1014.34 1013.39 1012.30 1011.22 1010.11
1029.55 1030.45 1030.91 1031.60 1031.42 1031.98 1032.89 1033.84 1035.15 1036.51 1038.30 1038.92 1038.27 1036.54 1035.40 1035.67 1035.23 1034.63 1033.99 1033.34 1032.45 1031.34 1030.44 1029.53 1028.79 1028.13 1027.35 1026.43 1025.66 1024.55 1023.43 1022.50 1021.38 1020.52 1019.64 1018.83 1017.86 1017.03 1016.13 1015.19 1014.13 1012.94 1011.76 1010.66
1030.09 1030.98 1031.28 1031.51 1031.57 1031.83 1032.33 1033.29 1034.66 1036.00 1036.83 1037.75 1036.80 1036.62 1035.91 1035.78 1035.53 1035.02 1034.40 1033.63 1032.46 1031.56 1030.56 1029.74 1029.16 1028.49 1027.64 1026.78 1025.84 1024.84 1023.82 1022.74 1021.79 1020.98 1020.09 1019.27 1018.36 1017.47 1016.66 1015.71 1014.73 1013.70 1012.50 1011.42
1030.84 1031.69 1031.95 1032.16 1031.98 1032.04 1032.28 1032.70 1033.75 1034.91 1035.74 1036.35 1036.12 1035.77 1035.56 1035.53 1035.23 1034.91 1034.48 1033.66 1032.74 1031.82 1030.96 1030.26 1029.63 1028.92 1028.02 1027.22 1026.27 1025.31 1024.19 1023.12 1022.29 1021.51 1020.62 1019.74 1018.80 1017.96 1017.31 1016.35 1015.42 1014.51 1013.33 1012.25
1031.77 1032.71 1033.35 1033.30 1032.67 1032.35 1032.32 1031.94 1032.90 1033.76 1034.49 1034.97 1035.54 1035.37 1035.60 1035.62 1035.31 1035.05 1034.66 1034.14 1033.22 1032.17 1031.23 1030.72 1029.99 1029.26 1028.47 1027.65 1026.76 1025.73 1024.62 1023.58 1022.76 1021.95 1021.00 1020.13 1019.34 1018.58 1017.79 1016.84 1016.04 1015.19 1014.23 1013.22
1032.33 1033.53 1034.42 1034.58 1033.61 1032.80 1031.63 1031.71 1032.35 1033.18 1033.71 1034.31 1034.79 1035.19 1035.49 1035.71 1035.21 1035.01 1034.71 1034.19 1033.23 1032.35 1031.51 1031.06 1030.34 1029.54 1028.81 1027.99 1027.04 1026.06 1024.88 1023.99 1023.24 1022.35 1021.39 1020.57 1019.90 1019.14 1018.30 1017.41 1016.72 1015.88 1014.98 1014.16
1032.36 1033.94 1035.30 1035.55 1034.40 1032.40 1031.73 1031.97 1032.46 1032.93 1033.50 1033.91 1034.58 1035.03 1035.23 1035.24 1035.08 1034.77 1034.49 1033.86 1033.25 1032.49 1031.79 1031.30 1030.64 1029.84 1029.04 1028.15 1027.26 1026.28 1025.11 1024.33 1023.62 1022.73 1021.82 1021.14 1020.48 1019.71 1018.88 1018.11 1017.37 1016.58 1015.78 1014.85
1033.02 1033.99 1035.11 1036.06 1035.01 1033.02 1031.55 1031.74 1032.21 1032.82 1033.40 1033.78 1034.37 1035.03 1035.39 1035.36 1035.65 1035.22 1034.46 1033.87 1033.18 1032.31 1031.77 1031.28 1030.53 1029.93 1029.25 1028.40 1027.54 1026.61 1025.46 1024.70 1024.02 1023.19 1022.36 1021.70 1021.00 1020.16 1019.38 1018.67 1017.89 1017.18 1016.16 1015.50
1033.34 1034.95 1035.81 1035.72 1034.66 1032.28 1031.38 1031.80 1032.48 1033.36 1033.64 1033.64 1034.26 1034.71 1035.12 1035.65 1035.81 1035.21 1034.59 1033.82 1033.12 1032.38 1031.90 1031.37 1030.73 1030.03 1029.38 1028.57 1027.83 1026.90 1025.87 1025.10 1024.43 1023.57 1022.72 1022.08 1021.36 1020.70 1019.81 1019.12 1018.21 1017.48 1016.48 1015.93
1032.12 1033.75 1034.80 1035.21 1034.40 1032.19 1031.37 1032.43 1032.68 1032.51 1032.98 1033.46 1034.10 1034.38 1034.81 1035.06 1035.07 1034.98 1034.35 1033.65 1032.89 1032.12 1031.57 1031.29 1030.96 1030.32 1029.63 1028.90 1028.13 1027.29 1026.28 1025.41 1024.65 1023.85 1023.03 1022.48 1021.83 1021.14 1020.36 1019.59 1018.66 1018.05 1017.42 1016.62
1031.33 1031.27 1031.81 1032.44 1031.18 1030.79 1031.08 1031.13 1031.61 1032.01 1032.75 1033.46 1033.84 1034.12 1034.38 1034.72 1034.90 1034.91 1034.38 1033.77 1033.03 1032.30 1032.01 1031.54 1031.09 1030.50 1029.86 1029.30 1028.53 1027.66 1026.56 1025.69 1024.95 1024.19 1023.41 1022.86 1022.28 1021.59 1020.93 1020.24 1019.12 1018.55 1018.17 1017.65
1030.20 1030.41 1030.93 1031.22 1030.76 1030.66 1031.08 1031.47 1031.76 1032.13 1032.64 1033.17 1033.51 1033.89 1034.26 1034.54 1034.85 1034.70 1034.34 1033.66 1032.92 1032.45 1032.07 1031.82 1031.31 1030.70 1030.05 1029.51 1028.80 1028.01 1026.87 1026.21 1025.44 1024.71 1023.90 1023.30 1022.79 1022.10 1021.57 1021.03 1020.10 1019.24 1018.67 1018.36
1029.29 1029.96 1030.18 1030.38 1030.59 1030.90 1031.10 1031.30 1031.72 1032.29 1032.66 1033.14 1033.48 1033.90 1034.16 1034.37 1034.71 1034.53 1034.18 1033.63 1033.04 1032.50 1032.18 1032.02 1031.63 1031.09 1030.44 1029.77 1029.13 1028.16 1027.34 1026.63 1025.94 1025.26 1024.46 1023.84 1023.26 1022.72 1022.20 1021.70 1021.22 1020.36 1019.67 1019.10
1027.95 1027.92 1028.34 1027.66 1027.82 1028.71 1029.23 1030.49 1031.45 1032.14 1032.70 1033.07 1033.53 1034.02 1034.12 1034.34 1034.57 1034.55 1034.28 1033.81 1033.04 1032.49 1032.45 1032.25 1031.87 1031.23 1030.61 1029.96 1029.39 1028.58 1027.72 1027.07 1026.44 1025.86 1025.10 1024.47 1023.88 1023.33 1022.80 1022.39 1021.92 1021.37 1020.83 1020.08
Thickness
5693 5676 5651 5650 5647 5645 5644 5634 5626 5612 5595 5575 5561 5545 5538 5534 5514 5498 5489 5473 5461 5450 5447 5447 5451 5451 5454 5451 5451 5450 5451 5450 5450 5450 5452 5454 5453 5452 5451 5448 5446 5445 5445 5444
5681 5660 5659 5657 5652 5650 5640 5625 5613 5599 5590 5572 5553 5546 5538 5523 5510 5490 5470 5456 5443 5440 5442 5448 5448 5448 5447 5447 5447 5446 5444 5444 5444 5443 5443 5442 5442 5442 5441 5441 5438 5434 5434 5435
5668 5660 5661 5659 5643 5635 5632 5621 5607 5601 5578 5563 5549 5538 5525 5512 5496 5477 5458 5435 5433 5430 5435 5442 5445 5444 5444 5444 5444 5442 5441 5440 5439 5438 5438 5437 5436 5435 5433 5431 5429 5428 5426 5427
5661 5660 5655 5649 5641 5630 5623 5624 5610 5599 5583 5566 5552 5538 5510 5488 5478 5467 5446 5438 5429 5427 5432 5433 5438 5440 5442 5440 5436 5432 5431 5432 5432 5430 5429 5426 5424 5426 5423 5423 5422 5422 5422 5423
5659 5652 5644 5640 5636 5628 5623 5615 5610 5599 5583 5562 5548 5524 5495 5477 5469 5458 5441 5429 5422 5419 5426 5431 5434 5434 5435 5434 5430 5426 5424 5424 5422 5419 5415 5414 5414 5412 5410 5412 5414 5416 5418 5420
5657 5656 5645 5636 5632 5627 5621 5618 5605 5585 5571 5564 5544 5524 5466 5462 5453 5445 5433 5418 5412 5419 5424 5428 5428 5431 5431 5428 5424 5422 5422 5422 5418 5415 5410 5406 5403 5405 5406 5408 5410 5412 5413 5416
5653 5642 5635 5628 5622 5622 5600 5594 5589 5594 5569 5564 5526 5512 5460 5462 5446 5426 5414 5410 5410 5416 5421 5428 5434 5435 5434 5430 5427 5424 5420 5417 5411 5406 5402 5400 5398 5399 5402 5403 5407 5411 5413 5412
5638 5642 5624 5621 5611 5601 5589 5572 5556 5579 5558 5538 5527 5510 5477 5466 5441 5418 5410 5407 5411 5416 5417 5420 5427 5427 5426 5424 5420 5419 5415 5411 5406 5403 5399 5395 5395 5397 5398 5399 5402 5406 5409 5409
5634 5627 5625 5614 5604 5596 5591 5554 5554 5542 5522 5498 5508 5493 5484 5461 5445 5427 5416 5411 5414 5417 5419 5422 5426 5425 5423 5420 5418 5417 5414 5407 5401 5397 5395 5392 5392 5394 5394 5396 5397 5400 5403 5407
5634 5624 5617 5612 5605 5588 5575 5561 5550 5512 5486 5512 5503 5483 5459 5453 5440 5426 5416 5415 5414 5417 5420 5422 5425 5424 5420 5417 5416 5414 5410 5406 5405 5401 5397 5393 5391 5393 5392 5393 5395 5397 5399 5402
5629 5621 5615 5603 5574 5567 5554 5544 5519 5500 5486 5453 5445 5482 5455 5436 5426 5416 5409 5410 5417 5417 5419 5421 5423 5422 5417 5416 5415 5414 5411 5411 5410 5406 5401 5398 5395 5396 5395 5393 5393 5395 5394 5394
5621 5596 5585 5586 5577 5568 5557 5539 5512 5479 5481 5439 5412 5452 5471 5438 5425 5416 5410 5408 5409 5414 5417 5420 5420 5420 5418 5416 5414 5415 5412 5412 5411 5407 5403 5400 5398 5397 5396 5393 5391 5389 5387 5385
5622 5600 5587 5594 5577 5567 5557 5540 5509 5481 5453 5431 5413 5464 5462 5440 5427 5416 5410 5413 5414 5416 5416 5419 5420 5419 5418 5417 5414 5414 5413 5410 5411 5410 5406 5401 5399 5395 5392 5390 5384 5380 5376 5373
5615 5593 5597 5583 5594 5564 5555 5542 5518 5493 5432 5422 5446 5462 5460 5437 5424 5414 5410 5409 5410 5415 5417 5419 5419 5417 5416 5416 5414 5414 5413 5411 5412 5409 5406 5401 5397 5391 5385 5378 5373 5368 5364 5361
5610 5606 5600 5587 5579 5572 5566 5551 5521 5470 5492 5450 5480 5457 5449 5434 5421 5409 5403 5408 5412 5414 5418 5420 5418 5416 5417 5415 5415 5414 5412 5413 5412 5408 5405 5400 5394 5387 5380 5372 5362 5354 5349 5345
5597 5592 5596 5588 5578 5570 5562 5554 5531 5513 5502 5477 5475 5463 5459 5437 5420 5410 5400 5409 5411 5413 5417 5416 5416 5415 5416 5414 5414 5413 5413 5413 5410 5407 5404 5399 5394 5386 5375 5365 5354 5345 5340 5337
5596 5579 5565 5589 5573 5567 5560 5553 5543 5531 5513 5500 5480 5473 5452 5437 5429 5414 5402 5403 5406 5411 5416 5413 5414 5415 5414 5413 5413 5412 5412 5412 5410 5408 5405 5399 5393 5384 5375 5364 5352 5343 5337 5332
5588 5569 5538 5537 5565 5572 5578 5556 5547 5533 5517 5499 5489 5473 5455 5439 5430 5415 5407 5402 5407 5410 5416 5412 5413 5414 5414 5412 5413 5412 5414 5413 5411 5409 5406 5400 5394 5385 5376 5367 5355 5345 5340 5333
5584 5562 5519 5547 5555 5580 5565 5550 5537 5537 5524 5502 5489 5472 5458 5442 5425 5421 5409 5407 5408 5411 5414 5412 5413 5415 5414 5414 5415 5415 5417 5415 5413 5411 5407 5400 5394 5388 5379 5371 5362 5351 5344 5339
5576 5558 5549 5500 5550 5585 5587 5553 5542 5530 5523 5503 5493 5475 5458 5442 5416 5407 5408 5408 5410 5415 5415 5414 5416 5416 5415 5415 5416 5416 5420 5417 5415 5412 5406 5400 5396 5391 5383 5376 5369 5359 5356 5347
5546 5523 5532 5524 5520 5567 5569 5549 5539 5541 5533 5506 5492 5479 5466 5446 5429 5423 5414 5410 5413 5416 5415 5415 5415 5417 5417 5417 5417 5418 5420 5418 5416 5411 5407 5402 5399 5393 5389 5382 5378 5371 5367 5359
5594 5555 5529 5504 5514 5596 5556 5544 5547 5536 5519 5508 5495 5485 5471 5456 5443 5429 5419 5413 5414 5420 5420 5418 5415 5416 5417 5418 5418 5418 5419 5420 5418 5414 5410 5406 5403 5400 5396 5390 5387 5380 5373 5371
5583 5590 5577 5575 5588 5570 5557 5565 5548 5535 5521 5510 5499 5489 5477 5462 5449 5431 5421 5414 5415 5419 5417 5418 5417 5417 5417 5417 5417 5418 5421 5422 5421 5417 5414 5411 5408 5406 5401 5396 5397 5392 5383 5375
5595 5581 5575 5582 5577 5571 5559 5553 5545 5536 5525 5514 5503 5493 5479 5466 5451 5439 5426 5418 5419 5418 5418 5417 5416 5417 5418 5418 5418 5420 5424 5422 5422 5419 5417 5415 5412 5410 5406 5401 5400 5399 5393 5383
5596 5583 5578 5575 5570 5565 5559 5553 5544 5535 5526 5517 5506 5494 5482 5470 5455 5445 5433 5424 5421 5420 5421 5417 5416 5417 5418 5419 5419 5422 5423 5424 5424 5422 5420 5418 5417 5413 5411 5406 5401 5400 5398 5392
5593 5600 5596 5608 5592 5582 5572 5556 5546 5535 5526 5517 5506 5494 5484 5473 5460 5450 5439 5429 5426 5422 5418 5416 5416 5418 5419 5420 5420 5422 5424 5425 5425 5422 5422 5420 5418 5416 5414 5409 5404 5401 5398 5396